GW2215 Weather Reports


time (UTC)temp
C
wind
direction
speed
KPH
gust
KPH
rain 1hr
cm
rain 24hr
cm
rain mn
cm
humidity
%
barometer
mb
20260510164533 24 69 1.6 12.9 0.00 0.00 0.00 50 1006.3
20260510163032 23 88 3.2 16.1 0.00 0.00 0.00 52 1006.3
20260510161527 23 78 1.6 16.1 0.00 0.00 0.00 53 1006.3
20260510160023 23 27 4.8 14.5 0.00 0.00 0.00 53 1006.3
20260510154520 23 344 6.4 12.9 0.00 0.00 0.00 53 1006.4
20260510153018 22 76 3.2 11.3 0.00 0.00 0.00 57 1006.4
20260510151512 21 316 4.8 12.9 0.00 0.00 0.00 61 1006.5
20260510150007 21 346 3.2 12.9 0.00 0.00 0.00 63 1006.7
20260510144504 20 93 3.2 9.7 0.00 0.00 0.00 65 1006.9
20260510143100 20 347 3.2 9.7 0.00 0.00 0.00 68 1007.1
20260510141556 19 42 0.0 8.0 0.00 0.00 0.00 71 1006.9
20260510140021 18 5 0.0 4.8 0.00 0.00 0.00 74 1006.8
20260510134518 17 355 1.6 6.4 0.00 0.00 0.00 76 1006.8
20260510133011 16 338 0.0 6.4 0.00 0.00 0.00 78 1006.8
20260510131508 15 141 0.0 0.0 0.00 0.00 0.00 82 1006.8
20260510130009 14 126 0.0 0.0 0.00 0.00 0.00 85 1006.9
20260510124613 13 236 0.0 0.0 0.00 0.00 0.00 87 1007.0
20260510123055 13 237 0.0 0.0 0.00 0.00 0.00 89 1006.7
20260510121551 12 237 0.0 4.8 0.00 0.00 0.00 90 1006.2
20260510120049 12 198 0.0 0.0 0.00 0.00 0.00 92 1006.2
20260510114545 12 93 0.0 0.0 0.00 0.00 0.00 92 1006.3
20260510113042 11 92 0.0 0.0 0.00 0.00 0.00 92 1006.3
20260510111541 11 90 0.0 4.8 0.00 0.00 0.00 92 1006.0
20260510110039 11 113 0.0 0.0 0.00 0.00 0.00 92 1006.0
20260510104537 11 120 0.0 1.6 0.00 0.00 0.00 91 1005.4
20260510103035 10 121 0.0 3.2 0.00 0.00 0.00 91 1005.4
20260510101635 10 114 0.0 1.6 0.00 0.00 0.00 91 1005.6
20260510100034 10 114 0.0 1.6 0.00 0.00 0.00 91 1005.6
20260510094634 10 110 0.0 3.2 0.00 0.00 0.00 91 1005.1
20260510093050 10 76 1.6 9.7 0.00 0.00 0.00 91 1005.1
20260510091537 10 83 1.6 9.7 0.00 0.00 0.00 91 1004.8
20260510090034 10 88 4.8 12.9 0.00 0.00 0.00 91 1005.4
20260510090029 10 87 4.8 12.9 0.00 0.00 0.00 91 1005.4
20260510084528 10 99 3.2 16.1 0.00 0.00 0.00 90 1005.4
20260510083027 10 131 0.0 0.0 0.00 0.00 0.00 89 1004.6
20260510081623 10 170 0.0 0.0 0.00 0.00 0.00 89 1004.4
20260510080022 10 170 0.0 0.0 0.00 0.00 0.00 89 1004.3
20260510074521 10 170 0.0 0.0 0.00 0.00 0.00 89 1004.7
20260510073021 10 170 0.0 0.0 0.00 0.00 0.00 89 1004.6
20260510071518 10 171 0.0 0.0 0.00 0.00 0.00 88 1004.2
20260510070022 10 235 0.0 0.0 0.00 0.00 0.00 88 1004.0
20260510064514 10 235 0.0 0.0 0.00 0.00 0.00 88 1003.7
20260510063013 11 235 0.0 0.0 0.00 0.00 0.00 88 1004.1
20260510061510 11 235 0.0 0.0 0.00 0.00 0.00 87 1004.3
20260510060010 11 235 0.0 0.0 0.00 0.00 0.00 87 1004.1
20260510054507 11 235 0.0 0.0 0.00 0.00 0.00 87 1004.2
20260510053030 11 235 0.0 0.0 0.00 0.00 0.00 87 1004.3
20260510051559 12 235 0.0 1.6 0.00 0.00 0.00 87 1004.7
20260510050058 12 235 0.0 0.0 0.00 0.00 0.00 86 1004.7
20260510044555 12 235 0.0 1.6 0.00 0.00 0.00 86 1004.5
20260510043102 12 235 0.0 0.0 0.00 0.00 0.00 85 1004.7
20260510041551 12 238 0.0 1.6 0.00 0.00 0.00 86 1004.9
20260510034549 12 238 0.0 4.8 0.00 0.00 0.00 86 1004.7
20260510033100 12 234 0.0 0.0 0.00 0.00 0.00 85 1004.7
20260510031546 12 229 0.0 0.0 0.00 0.00 0.00 85 1004.5
20260510030039 12 229 0.0 0.0 0.00 0.00 0.00 85 1004.2
20260510024541 13 229 0.0 0.0 0.00 0.00 0.00 84 1004.4
20260510023036 13 229 0.0 1.6 0.00 0.00 0.00 84 1004.4
20260510021541 13 229 0.0 1.6 0.00 0.00 0.00 84 1004.2
20260510020032 13 228 0.0 0.0 0.00 0.00 0.00 83 1004.3
20260510014533 13 242 0.0 6.4 0.00 0.00 0.00 83 1004.3
20260510013030 13 226 1.6 6.4 0.00 0.00 0.00 83 1004.1
20260510011539 13 229 0.0 3.2 0.00 0.00 0.00 83 1004.0
20260510010027 13 236 3.2 8.0 0.00 0.00 0.00 83 1004.1
20260510004530 13 240 3.2 6.4 0.00 0.00 0.00 82 1004.0
20260510003025 14 242 1.6 3.2 0.00 0.00 0.00 80 1003.7
20260510001523 14 242 0.0 4.8 0.00 0.00 0.00 79 1003.9
20260510000028 15 232 1.6 3.2 0.00 0.00 0.00 76 1003.6
20260509234521 15 229 0.0 0.0 0.00 0.00 0.00 74 1003.8
20260509233021 15 229 0.0 0.0 0.00 0.00 0.00 73 1003.8
20260509231550 15 229 0.0 0.0 0.00 0.00 0.00 73 1003.6
20260509230054 15 229 0.0 3.2 0.00 0.00 0.00 74 1003.3
20260509224545 15 229 0.0 1.6 0.00 0.00 0.00 77 1003.4
20260509223045 15 228 0.0 3.2 0.00 0.00 0.00 77 1003.7
20260509221545 14 237 0.0 3.2 0.00 0.00 0.00 78 1003.6
20260509220046 14 220 0.0 4.8 0.00 0.00 0.00 80 1003.8
20260509214559 14 205 0.0 1.6 0.00 0.00 0.00 79 1004.1
20260509213044 15 103 0.0 6.4 0.00 0.00 0.00 80 1003.9
20260509211542 15 108 0.0 0.0 0.00 0.00 0.00 77 1003.8
20260509210043 15 108 0.0 3.2 0.00 0.00 0.00 74 1003.9
20260509204638 15 88 3.2 9.7 0.00 0.00 0.00 72 1003.9
20260509203048 16 82 3.2 11.3 0.00 0.00 0.00 72 1003.8
20260509201538 15 142 3.2 14.5 0.00 0.00 0.00 76 1003.8
20260509200038 15 110 3.2 12.9 0.00 0.00 0.00 76 1003.6
20260509194534 15 76 6.4 17.7 0.00 0.00 0.00 75 1003.9
20260509193032 15 122 3.2 8.0 0.00 0.00 0.00 76 1004.1
20260509191539 14 97 6.4 17.7 0.00 0.00 0.00 78 1004.5
20260509190029 14 94 11.3 19.3 0.00 0.00 0.00 76 1004.7
20260509184534 15 88 1.6 12.9 0.00 0.00 0.00 75 1004.6
20260509183030 15 90 4.8 17.7 0.00 0.00 0.00 72 1004.6
20260509181522 15 104 6.4 19.3 0.00 0.00 0.00 69 1004.9
20260509180020 16 94 4.8 14.5 0.00 0.00 0.00 70 1004.6
20260509174523 16 61 4.8 17.7 0.00 0.00 0.00 68 1004.7
20260509173019 16 78 3.2 9.7 0.00 0.00 0.00 67 1004.5
20260509171517 16 95 3.2 11.3 0.00 0.00 0.00 67 1004.6
20260509170014 17 355 6.4 16.1 0.00 0.00 0.00 65 1004.6